Terug naar catalogus

STARLINK-37341

ActiefCommunicatieVLEO
NORAD 69509·PAYLOAD·🇺🇸 United States

Gelanceerd Jun 12, 2026 vanaf Cape Canaveral Space Force Station

Loading…

Volgende Passages (komende 24 uur)

TLE

VersSource: CelesTrak SupGP

Epoch: Sep 15, 2026, 03:59 UTC

1 69509C 26133B   26258.16645833 -.00061838  00000+0 -18258-2 0  2584
2 69509  53.1570 254.9325 0001668  78.5182 204.6371 15.34441132    16

Volg STARLINK-37341 in realtime met AllMySat

Download on the App Store